Regional Weather Roundup
Issued by NWS

Home | Current Version | Previous Version | Graphics & Text | Print | Product List | Glossary Off
Versions: 1 2 3 4 5 6 7 8 9 10 11 12 13 14 15 16 17 18 19 20 21 22 23 24 25 26 27 28 29 30 31 32 33 34 35 36 37 38 39 40 41 42 43 44 45 46 47 48 49 50

000
ASUS43 KTOP 242259
RWRKS

WEATHER ROUNDUP FOR KANSAS
NATIONAL WEATHER SERVICE GOODLAND KS
600 PM CDT FRI APR 24 2015

NOTE:  "FAIR" INDICATES FEW OR NO CLOUDS BELOW 12,000 FEET WITH NO
SIGNIFICANT WEATHER AND/OR OBSTRUCTIONS TO VISIBILITY.

KSZ001>006-013>018-027>032-041>047-250000-
NORTHWEST KANSAS

CITY           SKY/WX    TMP DP  RH WIND       PRES   REMARKS
GOODLAND       CLOUDY    61  39  44 SE8       29.52F
HAYS           CLOUDY    63  48  59 NE17G28   29.42F
HILL CITY      CLOUDY    67  54  63 E15G22    29.47S
RUSSELL        MOSUNNY   76  59  55 E13       29.41F
$$

KSZ061>065-074>080-084>089-250000-
SOUTHWEST KANSAS

CITY           SKY/WX    TMP DP  RH WIND       PRES   REMARKS
DODGE CITY     TSTM      65  48  54 W10       29.44F
ELKHART          N/A     63  42  46 W8          N/A
GARDEN CITY    CLOUDY    65  39  38 W16G28    29.47F
GREAT BEND     MOSUNNY   75  50  41 S18G24    29.40F
LIBERAL        CLOUDY    70  43  37 W22G28    29.50R
$$

KSZ066>073-081>083-090>101-250000-
SOUTHEAST KANSAS

CITY           SKY/WX    TMP DP  RH WIND       PRES   REMARKS
CHANUTE        CLOUDY    69  60  73 S23G30    29.61F
COFFEYVILLE    CLOUDY    67  60  78 S18G24    29.64S
HUTCHINSON     PTSUNNY   77  58  51 S25G31    29.46F
MEDICINE LODGE   N/A     78  54  43 S21G32    29.45F
NEWTON         PTSUNNY   72  57  60 S22G28    29.52F
PARSONS        CLOUDY    69  61  75 S12G20    29.64R
WICHITA INTL   PTSUNNY   76  61  59 S29G35    29.49F
WICHITA JABRA  CLOUDY    73  60  63 S22G35    29.51F
WINFIELD       CLOUDY    70  61  73 S24G32    29.54F
$$

KSZ007>012-019>026-033>040-048>060-102>105-250000-
NORTHEAST KANSAS

CITY           SKY/WX    TMP DP  RH WIND       PRES   REMARKS
CONCORDIA      PTSUNNY   66  57  72 E12       29.52F
EMPORIA        PTSUNNY   71  60  68 S20G28    29.55F
LAWRENCE       CLOUDY    63  54  72 E12       29.61F
MANHATTAN      CLOUDY    64  57  78 E8        29.55F
OLATHE IND     CLOUDY    64  56  75 SE12      29.63F
OLATHE EXE     CLOUDY    63  55  75 SE9       29.63F
SALINA         MOSUNNY   73  60  63 E13       29.46F
TOPEKA BILLARD CLOUDY    63  55  75 E9        29.59F
TOPEKA FORBES  CLOUDY    65  56  72 E12       29.58F
$$


USA.gov is the U.S. government's official web portal to all federal, state and local government web resources and services.